Time,TemperatureF,DewpointF,PressureIn,WindDirection,WindDirectionDegrees,WindSpeedMPH,WindSpeedGustMPH,Humidity,HourlyPrecipIn,Conditions,Clouds,dailyrainin,SolarRadiationWatts/m^2,SoftwareType,DateUTC
2013-04-04 00:02:00,53.1,28.2,29.59,ENE,67,0.0,0.0,31,0.00,,,-99.99,0.0,Linux-Irox,2013-04-04 07:02:00,
2013-04-04 00:12:00,53.1,28.2,29.59,ENE,67,0.0,0.0,31,0.00,,,-99.99,0.0,Linux-Irox,2013-04-04 07:12:00,
2013-04-04 00:22:00,53.1,28.6,29.59,North,0,0.0,0.0,32,0.00,,,-99.99,0.0,Linux-Irox,2013-04-04 07:22:00,
2013-04-04 00:32:00,52.9,28.0,29.59,West,270,0.0,0.0,31,0.00,,,-99.99,0.0,Linux-Irox,2013-04-04 07:32:00,
2013-04-04 00:42:00,52.9,28.4,29.59,ENE,67,0.0,0.0,32,0.00,,,-99.99,0.0,Linux-Irox,2013-04-04 07:42:00,
2013-04-04 00:52:00,52.7,28.2,29.59,NNE,22,0.0,0.0,32,0.00,,,-99.99,0.0,Linux-Irox,2013-04-04 07:52:00,
2013-04-04 01:02:00,52.9,28.4,29.60,NE,45,0.0,0.0,32,0.00,,,-99.99,0.0,Linux-Irox,2013-04-04 08:02:00,
2013-04-04 01:12:00,53.1,28.6,29.60,NNE,22,0.0,0.0,32,0.00,,,-99.99,0.0,Linux-Irox,2013-04-04 08:12:00,
2013-04-04 01:22:00,53.4,29.3,29.60,ENE,67,0.0,0.0,33,0.00,,,-99.99,0.0,Linux-Irox,2013-04-04 08:22:00,
2013-04-04 01:32:00,53.4,29.3,29.60,ENE,67,0.0,0.0,33,0.00,,,-99.99,0.0,Linux-Irox,2013-04-04 08:32:00,
2013-04-04 01:42:00,52.9,28.8,29.59,NNW,337,0.0,0.0,33,0.00,,,-99.99,0.0,Linux-Irox,2013-04-04 08:42:00,
2013-04-04 01:52:00,52.7,28.6,29.59,WSW,247,0.0,0.0,33,0.00,,,-99.99,0.0,Linux-Irox,2013-04-04 08:52:00,
2013-04-04 02:02:00,52.5,28.4,29.59,West,270,0.0,0.0,33,0.00,,,-99.99,0.0,Linux-Irox,2013-04-04 09:02:00,
2013-04-04 02:12:00,52.7,28.6,29.59,ENE,67,0.0,0.0,33,0.00,,,-99.99,0.0,Linux-Irox,2013-04-04 09:12:00,
2013-04-04 02:22:00,53.4,29.7,29.59,WNW,292,0.0,0.0,34,0.00,,,-99.99,0.0,Linux-Irox,2013-04-04 09:22:00,
2013-04-04 02:32:00,53.2,29.5,29.59,West,270,0.0,0.0,34,0.00,,,-99.99,0.0,Linux-Irox,2013-04-04 09:32:00,
2013-04-04 02:42:00,53.4,29.7,29.59,NW,315,0.0,0.0,34,0.00,,,-99.99,0.0,Linux-Irox,2013-04-04 09:42:00,
2013-04-04 02:52:00,53.6,29.8,29.59,NE,45,0.0,0.0,34,0.00,,,-99.99,0.0,Linux-Irox,2013-04-04 09:52:00,
2013-04-04 03:02:00,54.0,30.2,29.58,East,90,0.0,0.0,34,0.00,,,-99.99,0.0,Linux-Irox,2013-04-04 10:02:00,
2013-04-04 03:12:00,54.1,31.1,29.58,West,270,0.0,0.0,36,0.00,,,-99.99,0.0,Linux-Irox,2013-04-04 10:12:00,
2013-04-04 03:22:00,54.1,30.7,29.58,West,270,0.0,0.0,35,0.00,,,-99.99,0.0,Linux-Irox,2013-04-04 10:22:00,
2013-04-04 03:32:00,54.0,30.6,29.58,SE,135,0.0,0.0,35,0.00,,,-99.99,0.0,Linux-Irox,2013-04-04 10:32:00,
2013-04-04 03:42:00,53.8,30.0,29.58,ENE,67,0.0,0.0,34,0.00,,,-99.99,0.0,Linux-Irox,2013-04-04 10:42:00,
2013-04-04 03:52:00,53.6,29.8,29.58,SE,135,0.0,0.0,34,0.00,,,-99.99,0.0,Linux-Irox,2013-04-04 10:52:00,
2013-04-04 04:02:00,53.4,30.0,29.58,NNE,22,0.0,0.0,35,0.00,,,-99.99,0.0,Linux-Irox,2013-04-04 11:02:00,
2013-04-04 04:12:00,53.6,30.2,29.58,ENE,67,0.0,0.0,35,0.00,,,-99.99,0.0,Linux-Irox,2013-04-04 11:12:00,
2013-04-04 04:22:00,53.4,30.0,29.58,ENE,67,0.0,0.0,35,0.00,,,-99.99,0.0,Linux-Irox,2013-04-04 11:22:00,
2013-04-04 04:32:00,53.2,29.8,29.58,ENE,67,0.0,0.0,35,0.00,,,-99.99,0.0,Linux-Irox,2013-04-04 11:32:00,
2013-04-04 04:42:00,53.4,29.7,29.58,NNE,22,0.0,0.0,34,0.00,,,-99.99,0.0,Linux-Irox,2013-04-04 11:42:00,
2013-04-04 04:52:00,53.4,29.3,29.58,West,270,0.0,0.0,33,0.00,,,-99.99,0.0,Linux-Irox,2013-04-04 11:52:00,
2013-04-04 05:02:00,53.2,29.1,29.58,NW,315,0.0,0.0,33,0.00,,,-99.99,0.0,Linux-Irox,2013-04-04 12:02:00,
2013-04-04 05:12:00,53.2,29.1,29.58,ENE,67,0.0,0.0,33,0.00,,,-99.99,0.0,Linux-Irox,2013-04-04 12:12:00,
2013-04-04 05:22:00,53.4,29.3,29.59,South,180,0.0,0.0,33,0.00,,,-99.99,0.0,Linux-Irox,2013-04-04 12:22:00,
2013-04-04 05:32:00,53.4,28.6,29.59,East,90,0.0,0.0,31,0.00,,,-99.99,0.0,Linux-Irox,2013-04-04 12:32:00,
2013-04-04 05:42:00,53.4,28.2,29.58,ENE,67,0.0,0.0,30,0.00,,,-99.99,0.0,Linux-Irox,2013-04-04 12:42:00,
2013-04-04 05:46:00,53.4,27.9,29.58,NW,315,0.0,0.0,29,0.00,,,-99.99,0.0,Linux-Irox,2013-04-04 12:46:00,
2013-04-04 05:52:00,53.4,27.1,29.58,NNE,22,0.0,0.0,27,0.00,,,-99.99,0.0,Linux-Irox,2013-04-04 12:52:00,
2013-04-04 06:01:00,53.2,27.0,29.59,WNW,292,0.4,0.0,27,0.00,,,-99.99,0.0,Linux-Irox,2013-04-04 13:01:00,
2013-04-04 06:02:00,53.2,27.0,29.59,WNW,292,0.2,0.0,27,0.00,,,-99.99,0.0,Linux-Irox,2013-04-04 13:02:00,
2013-04-04 06:12:00,53.2,25.9,29.59,WNW,292,0.2,0.0,24,0.00,,,-99.99,0.0,Linux-Irox,2013-04-04 13:12:00,
2013-04-04 06:16:00,53.1,24.6,29.59,WNW,292,0.4,0.0,21,0.00,,,-99.99,0.0,Linux-Irox,2013-04-04 13:16:00,
2013-04-04 06:22:00,52.5,23.7,29.61,WSW,247,3.3,3.3,20,0.00,,,-99.99,0.0,Linux-Irox,2013-04-04 13:22:00,
2013-04-04 06:32:00,51.8,21.6,29.61,North,0,6.0,7.6,16,0.00,,,-99.99,0.0,Linux-Irox,2013-04-04 13:32:00,
2013-04-04 06:42:00,50.2,22.5,29.63,SE,135,1.8,2.2,23,0.00,,,-99.99,0.0,Linux-Irox,2013-04-04 13:42:00,
2013-04-04 06:46:00,50.0,23.0,29.63,West,270,3.3,3.3,25,0.00,,,-99.99,0.0,Linux-Irox,2013-04-04 13:46:00,
2013-04-04 06:52:00,49.6,23.7,29.63,WSW,247,1.3,1.6,28,0.00,,,-99.99,0.0,Linux-Irox,2013-04-04 13:52:00,
2013-04-04 07:01:00,49.3,25.2,29.65,South,180,1.3,5.1,33,0.00,,,-99.99,0.0,Linux-Irox,2013-04-04 14:01:00,
2013-04-04 07:02:00,49.1,24.6,29.65,SE,135,0.7,0.9,32,0.00,,,-99.99,0.0,Linux-Irox,2013-04-04 14:02:00,
2013-04-04 07:12:00,48.9,24.4,29.65,ESE,112,0.0,0.0,32,0.03,,,-99.99,0.0,Linux-Irox,2013-04-04 14:12:00,
2013-04-04 07:16:00,48.9,24.8,29.65,ENE,67,0.0,0.0,33,0.03,,,-99.99,0.0,Linux-Irox,2013-04-04 14:16:00,
2013-04-04 07:22:00,48.9,24.8,29.65,ENE,67,0.0,0.0,33,0.03,,,-99.99,0.0,Linux-Irox,2013-04-04 14:22:00,
2013-04-04 07:31:00,48.7,25.0,29.65,NE,45,0.0,2.5,34,0.05,,,-99.99,0.0,Linux-Irox,2013-04-04 14:31:00,
2013-04-04 07:32:00,48.9,25.5,29.65,NE,45,0.0,1.1,35,0.05,,,-99.99,0.0,Linux-Irox,2013-04-04 14:32:00,
2013-04-04 07:42:00,48.7,25.7,29.66,ENE,67,0.7,0.9,36,0.05,,,-99.99,0.0,Linux-Irox,2013-04-04 14:42:00,
2013-04-04 07:46:00,48.7,26.1,29.66,East,90,1.1,0.0,37,0.05,,,-99.99,0.0,Linux-Irox,2013-04-04 14:46:00,
2013-04-04 07:52:00,48.7,26.1,29.66,ENE,67,0.4,1.6,37,0.05,,,-99.99,0.0,Linux-Irox,2013-04-04 14:52:00,
2013-04-04 08:01:00,48.9,26.6,29.66,ENE,67,0.4,4.5,38,0.05,,,-99.99,0.0,Linux-Irox,2013-04-04 15:01:00,
2013-04-04 08:02:00,48.9,26.6,29.66,NE,45,0.0,0.0,38,0.05,,,-99.99,0.0,Linux-Irox,2013-04-04 15:02:00,
2013-04-04 08:11:00,48.9,26.6,29.66,NE,45,0.0,0.0,38,0.05,,,-99.99,0.0,Linux-Irox,2013-04-04 15:11:00,
2013-04-04 08:12:00,48.9,27.0,29.66,SW,225,0.0,0.0,39,0.08,,,-99.99,0.0,Linux-Irox,2013-04-04 15:12:00,
2013-04-04 08:16:00,48.9,27.0,29.66,ENE,67,0.0,0.0,39,0.05,,,-99.99,0.0,Linux-Irox,2013-04-04 15:16:00,
2013-04-04 08:22:00,48.9,27.3,29.66,NNW,337,0.2,0.0,40,0.05,,,-99.99,0.0,Linux-Irox,2013-04-04 15:22:00,
2013-04-04 08:31:00,49.1,27.5,29.66,ENE,67,0.4,4.0,40,0.05,,,-99.99,0.0,Linux-Irox,2013-04-04 15:31:00,
2013-04-04 08:32:00,49.3,27.7,29.66,ENE,67,0.4,0.9,40,0.05,,,-99.99,0.0,Linux-Irox,2013-04-04 15:32:00,
2013-04-04 08:42:00,49.3,27.7,29.67,East,90,0.4,1.6,40,0.05,,,-99.99,0.0,Linux-Irox,2013-04-04 15:42:00,
2013-04-04 08:46:00,49.1,28.2,29.67,East,90,1.6,6.2,42,0.05,,,-99.99,0.0,Linux-Irox,2013-04-04 15:46:00,
2013-04-04 08:52:00,48.9,28.4,29.67,NE,45,1.6,3.3,43,0.05,,,-99.99,0.0,Linux-Irox,2013-04-04 15:52:00,
2013-04-04 09:01:00,48.7,27.1,29.62,NE,45,4.2,9.4,40,0.08,,,-99.99,0.0,Linux-Irox,2013-04-04 16:01:00,
2013-04-04 09:02:00,48.7,27.5,29.62,NE,45,1.8,4.2,41,0.08,,,-99.99,0.0,Linux-Irox,2013-04-04 16:02:00,
2013-04-04 09:12:00,49.1,28.9,29.62,NE,45,0.9,0.0,44,0.08,,,-99.99,0.0,Linux-Irox,2013-04-04 16:12:00,
2013-04-04 09:16:00,49.3,28.8,29.62,ENE,67,0.4,0.0,43,0.05,,,-99.99,0.0,Linux-Irox,2013-04-04 16:16:00,
2013-04-04 09:22:00,49.5,28.9,29.64,ENE,67,0.0,0.0,43,0.05,,,-99.99,0.0,Linux-Irox,2013-04-04 16:22:00,
2013-04-04 09:32:00,50.0,29.5,29.64,WNW,292,0.4,4.0,43,0.08,,,-99.99,0.0,Linux-Irox,2013-04-04 16:32:00,
2013-04-04 09:42:00,50.4,31.3,29.66,WSW,247,1.1,0.0,47,0.11,,,-99.99,0.0,Linux-Irox,2013-04-04 16:42:00,
2013-04-04 09:46:00,50.5,31.8,29.66,WSW,247,1.1,0.0,48,0.08,,,-99.99,0.0,Linux-Irox,2013-04-04 16:46:00,
2013-04-04 09:52:00,50.4,31.6,29.66,ESE,112,0.4,0.0,48,0.08,,,-99.99,0.0,Linux-Irox,2013-04-04 16:52:00,
2013-04-04 10:02:00,50.4,31.6,29.67,ENE,67,0.2,0.0,48,0.11,,,-99.99,0.0,Linux-Irox,2013-04-04 17:02:00,
2013-04-04 10:12:00,50.4,32.7,29.67,SE,135,0.0,0.0,51,0.11,,,-99.99,0.0,Linux-Irox,2013-04-04 17:12:00,
2013-04-04 10:16:00,50.5,32.9,29.67,ESE,112,0.0,0.0,51,0.11,,,-99.99,0.0,Linux-Irox,2013-04-04 17:16:00,
2013-04-04 10:22:00,50.4,32.7,29.67,ENE,67,0.0,0.0,51,0.14,,,-99.99,0.0,Linux-Irox,2013-04-04 17:22:00,
2013-04-04 10:31:00,50.5,33.3,29.67,NE,45,0.0,0.0,52,0.17,,,-99.99,0.0,Linux-Irox,2013-04-04 17:31:00,
2013-04-04 10:32:00,50.7,33.8,29.67,NE,45,0.0,0.0,53,0.17,,,-99.99,0.0,Linux-Irox,2013-04-04 17:32:00,
2013-04-04 10:42:00,51.3,34.0,29.68,SE,135,0.0,0.0,52,0.14,,,-99.99,0.0,Linux-Irox,2013-04-04 17:42:00,
2013-04-04 10:47:00,51.6,34.7,29.68,ENE,67,0.2,0.0,53,0.11,,,-99.99,0.0,Linux-Irox,2013-04-04 17:47:00,
2013-04-04 10:52:00,52.2,35.6,29.68,ENE,67,0.0,0.0,54,0.11,,,-99.99,0.0,Linux-Irox,2013-04-04 17:52:00,
2013-04-04 11:01:00,52.9,36.7,29.68,NW,315,0.0,0.0,55,0.11,,,-99.99,0.0,Linux-Irox,2013-04-04 18:01:00,
2013-04-04 11:02:00,53.2,37.0,29.68,NW,315,0.0,0.0,55,0.11,,,-99.99,0.0,Linux-Irox,2013-04-04 18:02:00,
2013-04-04 11:12:00,53.6,37.4,29.68,South,180,0.2,1.1,55,0.08,,,-99.99,0.0,Linux-Irox,2013-04-04 18:12:00,
2013-04-04 11:16:00,53.8,37.9,29.68,South,180,0.4,2.5,56,0.05,,,-99.99,0.0,Linux-Irox,2013-04-04 18:16:00,
2013-04-04 11:22:00,53.4,37.9,29.68,NW,315,0.4,0.0,57,0.05,,,-99.99,0.0,Linux-Irox,2013-04-04 18:22:00,
2013-04-04 11:31:00,53.6,38.1,29.68,South,180,1.8,4.5,57,0.03,,,-99.99,0.0,Linux-Irox,2013-04-04 18:31:00,
2013-04-04 11:32:00,54.0,38.5,29.68,South,180,0.9,2.0,57,0.03,,,-99.99,0.0,Linux-Irox,2013-04-04 18:32:00,
2013-04-04 11:42:00,54.5,39.0,29.67,WSW,247,0.9,1.6,57,0.00,,,-99.99,0.0,Linux-Irox,2013-04-04 18:42:00,
2013-04-04 11:47:00,54.3,38.8,29.67,South,180,2.2,2.2,57,0.00,,,-99.99,0.0,Linux-Irox,2013-04-04 18:47:00,
2013-04-04 11:52:00,54.7,39.2,29.67,South,180,0.9,0.0,57,0.00,,,-99.99,0.0,Linux-Irox,2013-04-04 18:52:00,
2013-04-04 12:01:00,55.2,39.7,29.67,WNW,292,2.2,4.5,57,0.00,,,-99.99,0.0,Linux-Irox,2013-04-04 19:01:00,
2013-04-04 12:02:00,55.2,39.7,29.67,WNW,292,0.9,2.0,57,0.00,,,-99.99,0.0,Linux-Irox,2013-04-04 19:02:00,
2013-04-04 12:12:00,54.9,39.4,29.67,West,270,1.1,4.7,57,0.00,,,-99.99,0.0,Linux-Irox,2013-04-04 19:12:00,
2013-04-04 12:16:00,55.0,39.6,29.67,WSW,247,3.6,3.6,57,0.00,,,-99.99,0.0,Linux-Irox,2013-04-04 19:16:00,
2013-04-04 12:22:00,55.2,39.7,29.66,WSW,247,1.8,2.7,57,0.00,,,-99.99,0.0,Linux-Irox,2013-04-04 19:22:00,
2013-04-04 12:31:00,55.0,39.6,29.66,West,270,4.0,7.8,57,0.05,,,-99.99,0.0,Linux-Irox,2013-04-04 19:31:00,
2013-04-04 12:32:00,54.9,39.4,29.66,West,270,1.8,3.6,57,0.05,,,-99.99,0.0,Linux-Irox,2013-04-04 19:32:00,
2013-04-04 12:42:00,54.9,39.7,29.66,WSW,247,2.5,4.7,58,0.05,,,-99.99,0.0,Linux-Irox,2013-04-04 19:42:00,
2013-04-04 12:46:00,55.2,39.7,29.66,ESE,112,5.8,5.8,57,0.08,,,-99.99,0.0,Linux-Irox,2013-04-04 19:46:00,
2013-04-04 12:52:00,55.6,40.1,29.66,NNW,337,2.2,2.5,57,0.11,,,-99.99,0.0,Linux-Irox,2013-04-04 19:52:00,
2013-04-04 13:01:00,55.2,40.1,29.67,SSW,202,6.0,6.5,58,0.14,,,-99.99,0.0,Linux-Irox,2013-04-04 20:01:00,
2013-04-04 13:02:00,55.6,40.1,29.67,SSW,202,2.5,2.5,57,0.14,,,-99.99,0.0,Linux-Irox,2013-04-04 20:02:00,
2013-04-04 13:12:00,55.8,40.6,29.67,West,270,1.6,1.6,58,0.17,,,-99.99,0.0,Linux-Irox,2013-04-04 20:12:00,
2013-04-04 13:16:00,56.1,41.0,29.67,North,0,3.6,4.0,58,0.17,,,-99.99,0.0,Linux-Irox,2013-04-04 20:16:00,
2013-04-04 13:22:00,55.8,40.6,29.67,ESE,112,1.8,1.8,58,0.17,,,-99.99,0.0,Linux-Irox,2013-04-04 20:22:00,
2013-04-04 13:31:00,55.9,41.2,29.67,NE,45,4.7,5.1,59,0.19,,,-99.99,0.0,Linux-Irox,2013-04-04 20:31:00,
2013-04-04 13:32:00,55.9,41.2,29.67,West,270,2.0,5.1,59,0.19,,,-99.99,0.0,Linux-Irox,2013-04-04 20:32:00,
2013-04-04 13:42:00,55.6,40.8,29.66,South,180,1.6,1.6,59,0.14,,,-99.99,0.0,Linux-Irox,2013-04-04 20:42:00,
2013-04-04 13:46:00,55.6,40.8,29.66,WSW,247,2.7,4.2,59,0.17,,,-99.99,0.0,Linux-Irox,2013-04-04 20:46:00,
2013-04-04 13:52:00,55.6,40.8,29.66,SW,225,1.6,4.0,59,0.17,,,-99.99,0.0,Linux-Irox,2013-04-04 20:52:00,
2013-04-04 14:02:00,55.6,40.8,29.66,South,180,4.7,7.4,59,0.14,,,-99.99,0.0,Linux-Irox,2013-04-04 21:02:00,
2013-04-04 14:12:00,55.4,41.0,29.66,WNW,292,3.6,3.6,60,0.11,,,-99.99,0.0,Linux-Irox,2013-04-04 21:12:00,
2013-04-04 14:16:00,55.6,41.2,29.66,WSW,247,6.5,6.5,60,0.08,,,-99.99,0.0,Linux-Irox,2013-04-04 21:16:00,
2013-04-04 14:22:00,56.1,41.4,29.66,WSW,247,1.8,3.8,59,0.08,,,-99.99,0.0,Linux-Irox,2013-04-04 21:22:00,
2013-04-04 14:32:00,56.3,41.9,29.66,SSW,202,2.7,0.0,60,0.08,,,-99.99,0.0,Linux-Irox,2013-04-04 21:32:00,
2013-04-04 14:42:00,55.6,41.2,29.65,WSW,247,3.1,9.1,60,0.11,,,-99.99,0.0,Linux-Irox,2013-04-04 21:42:00,
2013-04-04 14:47:00,55.9,41.5,29.65,West,270,6.5,6.5,60,0.11,,,-99.99,0.0,Linux-Irox,2013-04-04 21:47:00,
2013-04-04 14:52:00,55.8,41.4,29.65,SW,225,2.5,0.0,60,0.14,,,-99.99,0.0,Linux-Irox,2013-04-04 21:52:00,
2013-04-04 15:01:00,56.3,41.5,29.65,WSW,247,4.0,5.4,59,0.11,,,-99.99,0.0,Linux-Irox,2013-04-04 22:01:00,
2013-04-04 15:02:00,56.5,41.7,29.65,WSW,247,1.6,3.8,59,0.11,,,-99.99,0.0,Linux-Irox,2013-04-04 22:02:00,
2013-04-04 15:12:00,55.9,41.2,29.65,WSW,247,2.7,3.6,59,0.08,,,-99.99,0.0,Linux-Irox,2013-04-04 22:12:00,
2013-04-04 15:16:00,55.8,41.0,29.65,NW,315,6.0,8.7,59,0.08,,,-99.99,0.0,Linux-Irox,2013-04-04 22:16:00,
2013-04-04 15:22:00,56.3,41.5,29.65,WSW,247,2.9,2.9,59,0.08,,,-99.99,0.0,Linux-Irox,2013-04-04 22:22:00,
2013-04-04 15:31:00,57.0,42.3,29.65,South,180,6.0,0.0,59,0.08,,,-99.99,0.0,Linux-Irox,2013-04-04 22:31:00,
2013-04-04 15:32:00,57.2,42.4,29.65,WSW,247,2.2,4.5,59,0.08,,,-99.99,0.0,Linux-Irox,2013-04-04 22:32:00,
2013-04-04 15:42:00,56.1,41.4,29.65,SW,225,2.0,2.0,59,0.08,,,-99.99,0.0,Linux-Irox,2013-04-04 22:42:00,
2013-04-04 15:46:00,56.1,41.4,29.65,WNW,292,6.7,12.3,59,0.03,,,-99.99,0.0,Linux-Irox,2013-04-04 22:46:00,
2013-04-04 15:52:00,57.0,42.3,29.65,WSW,247,2.7,2.7,59,0.03,,,-99.99,0.0,Linux-Irox,2013-04-04 22:52:00,
2013-04-04 16:01:00,57.6,42.8,29.64,West,270,1.6,4.7,59,0.00,,,-99.99,0.0,Linux-Irox,2013-04-04 23:01:00,
2013-04-04 16:02:00,57.4,42.6,29.64,West,270,0.7,2.0,59,0.00,,,-99.99,0.0,Linux-Irox,2013-04-04 23:02:00,
2013-04-04 16:12:00,57.0,42.3,29.64,West,270,0.9,1.1,59,0.00,,,-99.99,0.0,Linux-Irox,2013-04-04 23:12:00,
2013-04-04 16:16:00,56.8,42.1,29.64,WSW,247,2.5,6.0,59,0.00,,,-99.99,0.0,Linux-Irox,2013-04-04 23:16:00,
2013-04-04 16:22:00,56.7,41.9,29.65,WNW,292,1.6,1.6,59,0.00,,,-99.99,0.0,Linux-Irox,2013-04-04 23:22:00,
2013-04-04 16:31:00,57.0,42.3,29.65,West,270,2.0,2.7,59,0.00,,,-99.99,0.0,Linux-Irox,2013-04-04 23:31:00,
2013-04-04 16:32:00,56.8,42.1,29.65,West,270,0.9,1.1,59,0.00,,,-99.99,0.0,Linux-Irox,2013-04-04 23:32:00,
2013-04-04 16:42:00,56.7,41.9,29.65,ESE,112,1.1,1.3,59,0.00,,,-99.99,0.0,Linux-Irox,2013-04-04 23:42:00,
2013-04-04 16:46:00,56.8,42.1,29.65,SSW,202,2.2,3.1,59,0.00,,,-99.99,0.0,Linux-Irox,2013-04-04 23:46:00,
2013-04-04 16:52:00,57.0,42.3,29.65,South,180,0.7,1.6,59,0.00,,,-99.99,0.0,Linux-Irox,2013-04-04 23:52:00,
2013-04-04 17:01:00,57.4,42.6,29.64,SW,225,2.5,3.6,59,0.00,,,-99.99,0.0,Linux-Irox,2013-04-05 00:01:00,
2013-04-04 17:02:00,57.4,42.6,29.64,SW,225,1.1,1.6,59,0.00,,,-99.99,0.0,Linux-Irox,2013-04-05 00:02:00,
2013-04-04 17:12:00,57.0,42.3,29.64,North,0,1.1,1.1,59,0.00,,,-99.99,0.0,Linux-Irox,2013-04-05 00:12:00,
2013-04-04 17:16:00,57.2,42.1,29.64,North,0,2.7,2.7,58,0.00,,,-99.99,0.0,Linux-Irox,2013-04-05 00:16:00,
2013-04-04 17:22:00,57.9,42.8,29.65,SE,135,0.7,2.9,58,0.00,,,-99.99,0.0,Linux-Irox,2013-04-05 00:22:00,
2013-04-04 17:31:00,58.3,43.2,29.65,NNW,337,1.3,3.1,58,0.00,,,-99.99,0.0,Linux-Irox,2013-04-05 00:31:00,
2013-04-04 17:32:00,58.5,43.3,29.65,WSW,247,0.9,1.8,58,0.00,,,-99.99,0.0,Linux-Irox,2013-04-05 00:32:00,
2013-04-04 17:42:00,57.0,42.3,29.64,WNW,292,1.3,3.8,59,0.00,,,-99.99,0.0,Linux-Irox,2013-04-05 00:42:00,
2013-04-04 17:46:00,56.8,42.1,29.64,NW,315,4.2,6.7,59,0.00,,,-99.99,0.0,Linux-Irox,2013-04-05 00:46:00,
2013-04-04 17:52:00,56.8,42.1,29.64,West,270,1.8,2.9,59,0.00,,,-99.99,0.0,Linux-Irox,2013-04-05 00:52:00,
2013-04-04 18:01:00,56.8,42.1,29.64,West,270,2.9,4.2,59,0.00,,,-99.99,0.0,Linux-Irox,2013-04-05 01:01:00,
2013-04-04 18:02:00,57.0,42.3,29.64,SW,225,1.1,1.6,59,0.00,,,-99.99,0.0,Linux-Irox,2013-04-05 01:02:00,
2013-04-04 18:12:00,57.2,42.4,29.64,SW,225,0.4,0.0,59,0.00,,,-99.99,0.0,Linux-Irox,2013-04-05 01:12:00,
2013-04-04 18:17:00,57.6,42.8,29.64,WNW,292,1.6,0.0,59,0.00,,,-99.99,0.0,Linux-Irox,2013-04-05 01:17:00,
2013-04-04 18:22:00,57.9,43.2,29.63,WSW,247,0.9,2.2,59,0.00,,,-99.99,0.0,Linux-Irox,2013-04-05 01:22:00,
2013-04-04 18:31:00,57.4,43.0,29.63,NNW,337,1.6,0.0,60,0.00,,,-99.99,0.0,Linux-Irox,2013-04-05 01:31:00,
2013-04-04 18:32:00,57.2,42.8,29.63,SE,135,0.4,0.0,60,0.00,,,-99.99,0.0,Linux-Irox,2013-04-05 01:32:00,
2013-04-04 18:42:00,56.7,42.3,29.64,West,270,0.2,3.3,60,0.00,,,-99.99,0.0,Linux-Irox,2013-04-05 01:42:00,
2013-04-04 18:47:00,56.7,42.3,29.64,WSW,247,1.3,2.9,60,0.00,,,-99.99,0.0,Linux-Irox,2013-04-05 01:47:00,
2013-04-04 18:52:00,56.7,42.6,29.64,NW,315,0.4,0.0,61,0.00,,,-99.99,0.0,Linux-Irox,2013-04-05 01:52:00,
2013-04-04 19:01:00,56.7,43.0,29.64,SW,225,0.2,0.0,62,0.00,,,-99.99,0.0,Linux-Irox,2013-04-05 02:01:00,
2013-04-04 19:02:00,56.5,42.8,29.64,SW,225,0.0,0.0,62,0.00,,,-99.99,0.0,Linux-Irox,2013-04-05 02:02:00,
2013-04-04 19:12:00,56.3,42.6,29.64,SW,225,0.0,0.0,62,0.00,,,-99.99,0.0,Linux-Irox,2013-04-05 02:12:00,
2013-04-04 19:16:00,56.3,43.0,29.64,WSW,247,0.0,0.0,63,0.00,,,-99.99,0.0,Linux-Irox,2013-04-05 02:16:00,
2013-04-04 19:22:00,56.3,43.0,29.64,West,270,0.0,0.0,63,0.00,,,-99.99,0.0,Linux-Irox,2013-04-05 02:22:00,
2013-04-04 19:31:00,55.9,42.6,29.64,West,270,0.0,0.0,63,0.00,,,-99.99,0.0,Linux-Irox,2013-04-05 02:31:00,
2013-04-04 19:32:00,55.9,42.6,29.64,SW,225,0.2,0.0,63,0.00,,,-99.99,0.0,Linux-Irox,2013-04-05 02:32:00,
2013-04-04 19:42:00,55.8,42.4,29.64,NNW,337,0.2,0.0,63,0.00,,,-99.99,0.0,Linux-Irox,2013-04-05 02:42:00,
2013-04-04 19:46:00,55.8,42.4,29.64,ENE,67,0.0,0.0,63,0.00,,,-99.99,0.0,Linux-Irox,2013-04-05 02:46:00,
2013-04-04 19:52:00,55.6,42.3,29.64,SE,135,0.2,0.0,63,0.00,,,-99.99,0.0,Linux-Irox,2013-04-05 02:52:00,
2013-04-04 20:01:00,55.4,42.1,29.63,West,270,0.7,2.2,63,0.00,,,-99.99,0.0,Linux-Irox,2013-04-05 03:01:00,
2013-04-04 20:02:00,55.4,42.1,29.63,WSW,247,0.0,0.0,63,0.00,,,-99.99,0.0,Linux-Irox,2013-04-05 03:02:00,
2013-04-04 20:12:00,55.2,42.3,29.63,WSW,247,0.0,0.0,64,0.00,,,-99.99,0.0,Linux-Irox,2013-04-05 03:12:00,
2013-04-04 20:22:00,55.2,42.3,29.64,NE,45,0.0,0.0,64,0.00,,,-99.99,0.0,Linux-Irox,2013-04-05 03:22:00,
2013-04-04 20:32:00,55.2,42.6,29.64,SE,135,0.0,0.0,65,0.00,,,-99.99,0.0,Linux-Irox,2013-04-05 03:32:00,
2013-04-04 20:42:00,55.2,42.6,29.64,ENE,67,0.0,0.0,65,0.00,,,-99.99,0.0,Linux-Irox,2013-04-05 03:42:00,
2013-04-04 20:52:00,55.4,42.8,29.64,SSE,157,0.0,0.0,65,0.00,,,-99.99,0.0,Linux-Irox,2013-04-05 03:52:00,
2013-04-04 21:02:00,55.2,43.0,29.64,WSW,247,0.0,0.0,66,0.00,,,-99.99,0.0,Linux-Irox,2013-04-05 04:02:00,
2013-04-04 21:12:00,54.9,42.3,29.64,WNW,292,0.0,0.0,65,0.00,,,-99.99,0.0,Linux-Irox,2013-04-05 04:12:00,
2013-04-04 21:22:00,54.9,42.3,29.66,ENE,67,0.0,0.0,65,0.00,,,-99.99,0.0,Linux-Irox,2013-04-05 04:22:00,
2013-04-04 21:32:00,55.0,42.4,29.66,SSE,157,0.0,0.0,65,0.00,,,-99.99,0.0,Linux-Irox,2013-04-05 04:32:00,
2013-04-04 21:42:00,54.9,42.3,29.66,SW,225,0.0,0.0,65,0.00,,,-99.99,0.0,Linux-Irox,2013-04-05 04:42:00,
2013-04-04 21:52:00,54.9,42.3,29.66,NW,315,0.0,0.0,65,0.00,,,-99.99,0.0,Linux-Irox,2013-04-05 04:52:00,
2013-04-04 22:02:00,54.7,42.1,29.67,SE,135,0.0,0.0,65,0.00,,,-99.99,0.0,Linux-Irox,2013-04-05 05:02:00,
2013-04-04 22:12:00,54.7,42.1,29.67,ESE,112,0.0,0.0,65,0.00,,,-99.99,0.0,Linux-Irox,2013-04-05 05:12:00,
2013-04-04 22:22:00,54.5,41.9,29.67,NW,315,0.0,0.0,65,0.00,,,-99.99,0.0,Linux-Irox,2013-04-05 05:22:00,
2013-04-04 22:42:00,54.5,41.9,29.68,ESE,112,0.0,0.0,65,0.00,,,-99.99,0.0,Linux-Irox,2013-04-05 05:42:00,
2013-04-04 22:52:00,54.3,41.7,29.68,WSW,247,0.0,0.0,65,0.00,,,-99.99,0.0,Linux-Irox,2013-04-05 05:52:00,
2013-04-04 23:02:00,54.3,41.7,29.68,West,270,0.0,0.0,65,0.00,,,-99.99,0.0,Linux-Irox,2013-04-05 06:02:00,
2013-04-04 23:12:00,54.1,41.2,29.68,ENE,67,0.0,0.0,64,0.00,,,-99.99,0.0,Linux-Irox,2013-04-05 06:12:00,
2013-04-04 23:22:00,53.6,40.6,29.68,WSW,247,0.0,0.0,64,0.00,,,-99.99,0.0,Linux-Irox,2013-04-05 06:22:00,
2013-04-04 23:32:00,53.6,40.3,29.68,West,270,0.0,0.0,63,0.00,,,-99.99,0.0,Linux-Irox,2013-04-05 06:32:00,
2013-04-04 23:42:00,53.6,40.3,29.69,West,270,0.0,0.0,63,0.00,,,-99.99,0.0,Linux-Irox,2013-04-05 06:42:00,
2013-04-04 23:52:00,53.2,39.9,29.69,NW,315,0.2,0.0,63,0.00,,,-99.99,0.0,Linux-Irox,2013-04-05 06:52:00,